KAL121 RKSS-RKPC

Flight info

Callsign KAL121
Flight time 0h 43m
Altitude 26000
Route BULTI Y711 DOTOL
Aircraft A21N/M-SDE2E3FGHIRWXY/LB1

Departure

Time 2025-09-05 08:58
Airport Gimpo International Airport (RKSS)

Arrival

Time 2025-09-05 09:41
Airport Jeju International Airport (RKPC)
Time Latitude Longitude Altitude Speed Heading
2025-09-05 08:37 37.55659 126.80466 72 ft 0 kts 45°
2025-09-05 08:49 37.55642 126.80445 64 ft 2 kts 44°
2025-09-05 08:49 37.55633 126.80433 66 ft 0 kts 43°
2025-09-05 08:49 37.55615 126.80412 62 ft 2 kts 41°
2025-09-05 08:50 37.55595 126.80392 66 ft 2 kts 40°
2025-09-05 08:50 37.55568 126.80367 68 ft 2 kts 18°
2025-09-05 08:51 37.55535 126.80374 62 ft 2 kts 316°
2025-09-05 08:52 37.55530 126.80380 62 ft 0 kts 317°
2025-09-05 08:52 37.55543 126.80366 67 ft 6 kts 317°
2025-09-05 08:52 37.55564 126.80315 69 ft 7 kts 270°
2025-09-05 08:53 37.55462 126.80174 61 ft 14 kts 206°
2025-09-05 08:53 37.55290 126.80359 70 ft 20 kts 134°
2025-09-05 08:54 37.54989 126.80741 65 ft 16 kts 136°
2025-09-05 08:54 37.54924 126.80821 68 ft 13 kts 142°
2025-09-05 08:55 37.54797 126.80711 65 ft 8 kts 259°
2025-09-05 08:56 37.54821 126.80658 64 ft 0 kts 315°
2025-09-05 08:56 37.55366 126.79969 63 ft 127 kts 314°
2025-09-05 08:56 37.56145 126.78983 98 ft 184 kts 314°
2025-09-05 08:57 37.57836 126.76577 1651 ft 191 kts 288°
2025-09-05 08:57 37.57298 126.73325 2894 ft 223 kts 226°
2025-09-05 08:58 37.54167 126.71912 4171 ft 278 kts 174°
2025-09-05 08:58 37.50026 126.72569 5634 ft 300 kts 175°
2025-09-05 08:59 37.45950 126.73106 7664 ft 292 kts 176°
2025-09-05 09:00 37.39778 126.73898 9722 ft 303 kts 176°
2025-09-05 09:00 37.35521 126.74443 10983 ft 310 kts 176°
2025-09-05 09:00 37.33361 126.74719 11576 ft 313 kts 176°
2025-09-05 09:01 37.28974 126.75281 12718 ft 319 kts 176°
2025-09-05 09:01 37.24542 126.75846 13773 ft 325 kts 176°
2025-09-05 09:02 37.19991 126.76427 14632 ft 331 kts 176°
2025-09-05 09:02 37.15419 126.77012 15428 ft 337 kts 177°
2025-09-05 09:03 37.10664 126.77618 16228 ft 343 kts 177°
2025-09-05 09:04 37.03486 126.78536 17395 ft 351 kts 177°
2025-09-05 09:04 37.01049 126.78844 17762 ft 353 kts 178°
2025-09-05 09:04 36.96097 126.79472 18451 ft 358 kts 177°
2025-09-05 09:05 36.91105 126.80105 19090 ft 362 kts 177°
2025-09-05 09:05 36.86045 126.80745 19736 ft 366 kts 177°
2025-09-05 09:06 36.80936 126.81392 20374 ft 370 kts 177°
2025-09-05 09:06 36.75776 126.82043 21025 ft 375 kts 176°
2025-09-05 09:07 36.70553 126.82567 21677 ft 378 kts 180°
2025-09-05 09:07 36.65264 126.82771 22338 ft 382 kts 180°
2025-09-05 09:08 36.59912 126.82971 23001 ft 387 kts 180°
2025-09-05 09:08 36.54532 126.83178 23645 ft 392 kts 180°
2025-09-05 09:09 36.48987 126.83385 24227 ft 396 kts 180°
2025-09-05 09:09 36.43428 126.83596 24808 ft 402 kts 180°
2025-09-05 09:10 36.32146 126.83104 25891 ft 408 kts 186°
2025-09-05 09:13 36.06686 126.80315 25905 ft 412 kts 186°
2025-09-05 09:14 35.86034 126.78081 25925 ft 484 kts 186°
2025-09-05 09:16 35.58493 126.75095 25907 ft 507 kts 186°
2025-09-05 09:18 35.30256 126.72077 25914 ft 507 kts 186°
2025-09-05 09:20 35.02231 126.69093 25925 ft 505 kts 185°
2025-09-05 09:22 34.74253 126.66148 25922 ft 503 kts 185°
2025-09-05 09:24 34.50197 126.63618 24559 ft 484 kts 186°
2025-09-05 09:25 34.43523 126.62919 23699 ft 478 kts 186°
2025-09-05 09:25 34.36951 126.62238 22708 ft 471 kts 186°
2025-09-05 09:26 34.30456 126.61554 21714 ft 464 kts 186°
2025-09-05 09:26 34.24124 126.60414 20657 ft 455 kts 199°
2025-09-05 09:27 34.18311 126.57571 19654 ft 447 kts 204°
2025-09-05 09:27 34.15450 126.56124 19152 ft 444 kts 203°
2025-09-05 09:28 34.06985 126.51951 17623 ft 433 kts 203°
2025-09-05 09:28 34.01456 126.49242 16532 ft 425 kts 203°
2025-09-05 09:29 33.96009 126.46573 15481 ft 418 kts 203°
2025-09-05 09:29 33.90665 126.43956 14468 ft 411 kts 203°
2025-09-05 09:30 33.85436 126.41403 13430 ft 397 kts 203°
2025-09-05 09:30 33.80536 126.39014 12337 ft 379 kts 203°
2025-09-05 09:31 33.75729 126.36671 11265 ft 361 kts 203°
2025-09-05 09:31 33.73438 126.35554 10770 ft 351 kts 203°
2025-09-05 09:32 33.66920 126.32386 9262 ft 326 kts 202°
2025-09-05 09:32 33.62810 126.30391 8228 ft 312 kts 202°
2025-09-05 09:33 33.58874 126.28481 7249 ft 299 kts 202°
2025-09-05 09:33 33.55072 126.26638 6306 ft 287 kts 202°
2025-09-05 09:33 33.53241 126.25749 5819 ft 282 kts 202°
2025-09-05 09:34 33.47934 126.23154 4336 ft 255 kts 199°
2025-09-05 09:35 33.44863 126.23753 3333 ft 222 kts 130°
2025-09-05 09:35 33.44072 126.25259 3015 ft 207 kts 114°
2025-09-05 09:36 33.42398 126.29453 2777 ft 163 kts 117°
2025-09-05 09:36 33.41990 126.30669 2700 ft 154 kts 101°
2025-09-05 09:36 33.42803 126.32914 2631 ft 152 kts 56°
2025-09-05 09:37 33.44479 126.36118 2154 ft 150 kts 58°
2025-09-05 09:38 33.45417 126.37945 1809 ft 149 kts 59°
2025-09-05 09:38 33.46319 126.39713 1451 ft 148 kts 59°
2025-09-05 09:38 33.46864 126.40766 1286 ft 149 kts 58°
2025-09-05 09:39 33.47946 126.42890 846 ft 150 kts 58°
2025-09-05 09:40 33.49593 126.46069 291 ft 149 kts 57°
2025-09-05 09:40 33.50637 126.48100 100 ft 115 kts 58°
2025-09-05 09:41 33.51145 126.49091 97 ft 32 kts 58°
2025-09-05 09:41 33.51296 126.49388 99 ft 0 kts 63°
2025-09-05 09:42 33.51294 126.49466 100 ft 9 kts 119°
2025-09-05 09:42 33.51204 126.49566 99 ft 13 kts 149°
2025-09-05 09:42 33.51113 126.49622 100 ft 16 kts 170°
2025-09-05 09:43 33.50945 126.49426 98 ft 16 kts 236°
2025-09-05 09:44 33.50788 126.49145 102 ft 13 kts 192°
2025-09-05 09:44 33.50715 126.49180 99 ft 0 kts 158°
2025-09-05 09:45 33.50709 126.49183 99 ft 0 kts 158°